Weather in Pervomayskoye

Russia / Saratov Oblast     51°27′50″N   47°37′22″E
temp.,
°C
wind,
m/s
gust,
m/s
humid.,
%
clouds,
%
prec.,
mm/h
press.,
hPa
HPBL,
m
12 april, mon
mon1201:00+13se466869 0.0 102785
04:00+11se476577 0.0 102879
07:00+11ese336362 0.0 102934
10:00+17se4647100 0.0 1030346
13:00+21ese453839 0.0 10301002
16:00+22ese673411 0.0 10301689
19:00+18ese495073 0.0 1030181
22:00+13ese4106248 0.0 1032174
13 april, tue
tue1301:00+11ese485812 0.0 1032109
04:00+9ese49625 0.0 1032117
07:00+8ese49665 0.0 1032158
10:00+14ese574554 0.0 1032439
13:00+18ese563424 0.0 10321017
16:00+20ese67310 0.0 10301305
19:00+16ese484722 0.0 1030149
22:00+12ese4105617 0.0 1030163
14 april, wed
wed1401:00+9ese486077 0.0 1029124
04:00+8e476353 0.0 102999
07:00+7e486616 0.0 1028136
10:00+14ese69465 0.0 1027469
13:00+18ese67345 0.0 10251126
16:00+19ese67335 0.0 10241400
19:00+16ese47495 0.0 1023127
22:00+12ese46630 0.0 102383
15 april, thu
thu1501:00+11ese35770 0.0 102269
04:00+10e34860 0.0 102155
07:00+9e34870 0.0 102173
10:00+15e34590 0.0 1020476
13:00+19ese33380 0.0 10191224
16:00+20se23340 0.0 10171705
19:00+18ene22430 0.0 101613
22:00+15e33565 0.0 101633
16 april, fri
fri1601:00+13se346656 0.0 101548
04:00+12sse34686 0.0 101542
07:00+12se226576 0.0 101429
10:00+18sse23455 0.0 1014423
13:00+20sse3337100 0.0 10131549
16:00+21ssw3335100 0.0 10122024
19:00+19se224267 0.0 101112
22:00+15sse3457100 0.3 101151